STARLINK-33703 (63418 NORAD) Tracking and Keplerian Element Data

This shows tracking and keplerian element data for the satellite.

Feedback or suggestion? Click here.




ElementValue
Catalog63418
NameSTARLINK-33703
Epoch Orbit4059
Epoch Day353.63378615
Epoch Year2025
RAAN199.3811
Inclination43.0017
Eccentricity0.0001534
Argument of Perigee266.0446
Mean Anonmoly94.023
Mean Motion15.2759152
Decay Rate0.00023755
L11 63418U 25065V 25353.63378615 .00023755 00000+0 86967-3 0 9997
L22 63418 43.0017 199.3811 0001534 266.0446 94.0230 15.27591520 40595



Live tracking and technical data element details for STARLINK-33703 (NORAD 63418). STARLINK-33703 can be tracked NOW for your location showing map with azimuth and elevation plus other details from your city location.







IsCatalogInMostPopularTable: catalog: 63418, numindb: 2
Update: records affected: 1



GetName: 63418 STARLINK-33703

Hit Count: updated at: Mon, 09 Feb 2026 08:07:02 GMT